Time,TemperatureF,DewpointF,PressureIn,WindDirection,WindDirectionDegrees,WindSpeedMPH,WindSpeedGustMPH,Humidity,HourlyPrecipIn,Conditions,Clouds,dailyrainin,SoftwareType,DateUTC
2013-08-17 00:05:00,65.1,52.2,30.16,East,89,0.0,0.0,63,0.00,,CLR,0.00,VWS V14.01,2013-08-17 05:05:00,
2013-08-17 00:10:00,65.1,52.2,30.16,East,89,0.0,0.0,63,0.00,,CLR,0.00,VWS V14.01,2013-08-17 05:10:00,
2013-08-17 00:15:00,65.1,52.2,30.16,East,89,0.0,0.0,63,0.00,,CLR,0.00,VWS V14.01,2013-08-17 05:15:00,
2013-08-17 00:20:00,64.9,52.1,30.16,East,89,0.0,0.0,63,0.00,,CLR,0.00,VWS V14.01,2013-08-17 05:20:00,
2013-08-17 00:25:00,64.9,52.1,30.16,East,89,0.0,0.0,63,0.00,,CLR,0.00,VWS V14.01,2013-08-17 05:25:00,
2013-08-17 00:30:00,64.8,51.9,30.16,East,89,0.0,0.0,63,0.00,,CLR,0.00,VWS V14.01,2013-08-17 05:30:00,
2013-08-17 00:35:00,64.6,51.7,30.19,East,89,0.0,0.0,63,0.00,,CLR,0.00,VWS V14.01,2013-08-17 05:35:00,
2013-08-17 00:40:00,64.6,51.7,30.19,East,89,0.0,0.0,63,0.00,,CLR,0.00,VWS V14.01,2013-08-17 05:40:00,
2013-08-17 00:45:00,64.4,51.5,30.19,East,89,0.0,0.0,63,0.00,,CLR,0.00,VWS V14.01,2013-08-17 05:45:00,
2013-08-17 00:50:00,64.4,51.5,30.19,East,89,0.0,0.0,63,0.00,,CLR,0.00,VWS V14.01,2013-08-17 05:50:00,
2013-08-17 00:55:00,64.2,51.4,30.19,East,89,0.0,0.0,63,0.00,,CLR,0.00,VWS V14.01,2013-08-17 05:55:00,
2013-08-17 01:00:00,64.2,51.4,30.19,East,89,0.0,0.0,63,0.00,,CLR,0.00,VWS V14.01,2013-08-17 06:00:00,
2013-08-17 01:05:00,64.0,51.2,30.16,East,89,0.0,0.0,63,0.00,,CLR,0.00,VWS V14.01,2013-08-17 06:05:00,
2013-08-17 01:10:00,63.5,50.7,30.16,East,89,0.0,0.0,63,0.00,,CLR,0.00,VWS V14.01,2013-08-17 06:10:00,
2013-08-17 01:15:00,63.3,50.5,30.16,East,89,0.0,0.0,63,0.00,,CLR,0.00,VWS V14.01,2013-08-17 06:15:00,
2013-08-17 01:20:00,63.1,50.3,30.16,East,89,0.0,0.0,63,0.00,,CLR,0.00,VWS V14.01,2013-08-17 06:20:00,
2013-08-17 01:25:00,63.1,50.3,30.16,East,89,0.0,0.0,63,0.00,,CLR,0.00,VWS V14.01,2013-08-17 06:25:00,
2013-08-17 01:30:00,63.0,50.2,30.16,East,89,0.0,0.0,63,0.00,,CLR,0.00,VWS V14.01,2013-08-17 06:30:00,
2013-08-17 01:35:00,63.0,50.2,30.16,East,89,0.0,0.0,63,0.00,,CLR,0.00,VWS V14.01,2013-08-17 06:35:00,
2013-08-17 01:40:00,62.8,50.0,30.16,East,89,0.0,0.0,63,0.00,,CLR,0.00,VWS V14.01,2013-08-17 06:40:00,
2013-08-17 01:45:00,62.8,50.0,30.16,East,89,0.0,0.0,63,0.00,,CLR,0.00,VWS V14.01,2013-08-17 06:45:00,
2013-08-17 01:50:00,62.8,50.0,30.19,East,89,0.0,0.0,63,0.00,,CLR,0.00,VWS V14.01,2013-08-17 06:50:00,
2013-08-17 01:55:00,62.6,49.8,30.19,East,89,0.0,0.0,63,0.00,,CLR,0.00,VWS V14.01,2013-08-17 06:55:00,
2013-08-17 02:01:00,62.6,49.8,30.19,East,89,0.0,0.0,63,0.00,,CLR,0.00,VWS V14.01,2013-08-17 07:01:00,
2013-08-17 02:06:00,62.6,49.8,30.16,East,89,0.0,0.0,63,0.00,,CLR,0.00,VWS V14.01,2013-08-17 07:06:00,
2013-08-17 02:11:00,62.6,49.8,30.16,East,89,0.0,0.0,63,0.00,,CLR,0.00,VWS V14.01,2013-08-17 07:11:00,
2013-08-17 02:16:00,62.6,54.0,30.16,East,89,0.0,0.0,74,0.00,,CLR,0.00,VWS V14.01,2013-08-17 07:16:00,
2013-08-17 02:21:00,62.4,53.8,30.16,East,89,0.0,0.0,74,0.00,,CLR,0.00,VWS V14.01,2013-08-17 07:21:00,
2013-08-17 02:26:00,62.4,53.8,30.16,East,89,0.0,0.0,74,0.00,,CLR,0.00,VWS V14.01,2013-08-17 07:26:00,
2013-08-17 02:31:00,62.2,53.7,30.16,East,89,0.0,0.0,74,0.00,,CLR,0.00,VWS V14.01,2013-08-17 07:31:00,
2013-08-17 02:36:00,62.2,53.7,30.16,East,89,0.0,0.0,74,0.00,,CLR,0.00,VWS V14.01,2013-08-17 07:36:00,
2013-08-17 02:41:00,62.2,53.7,30.16,East,89,0.0,0.0,74,0.00,,CLR,0.00,VWS V14.01,2013-08-17 07:41:00,
2013-08-17 02:46:00,62.1,53.5,30.16,East,89,0.0,0.0,74,0.00,,CLR,0.00,VWS V14.01,2013-08-17 07:46:00,
2013-08-17 02:51:00,61.9,53.3,30.16,East,89,0.0,0.0,74,0.00,,CLR,0.00,VWS V14.01,2013-08-17 07:51:00,
2013-08-17 02:56:00,61.9,53.3,30.16,East,89,0.0,0.0,74,0.00,,CLR,0.00,VWS V14.01,2013-08-17 07:56:00,
2013-08-17 03:01:00,61.9,53.3,30.16,East,89,0.0,0.0,74,0.00,,CLR,0.00,VWS V14.01,2013-08-17 08:01:00,
2013-08-17 03:06:00,61.9,53.3,30.16,East,89,0.0,0.0,74,0.00,,CLR,0.00,VWS V14.01,2013-08-17 08:06:00,
2013-08-17 03:11:00,61.7,53.2,30.16,East,89,0.0,0.0,74,0.00,,CLR,0.00,VWS V14.01,2013-08-17 08:11:00,
2013-08-17 03:16:00,61.5,53.0,30.16,East,89,0.0,0.0,74,0.00,,CLR,0.00,VWS V14.01,2013-08-17 08:16:00,
2013-08-17 03:21:00,61.3,52.8,30.16,East,89,0.0,0.0,74,0.00,,CLR,0.00,VWS V14.01,2013-08-17 08:21:00,
2013-08-17 03:26:00,61.2,52.6,30.16,East,89,0.0,0.0,74,0.00,,CLR,0.00,VWS V14.01,2013-08-17 08:26:00,
2013-08-17 03:31:00,61.3,52.8,30.16,ESE,106,0.0,0.0,74,0.00,,CLR,0.00,VWS V14.01,2013-08-17 08:31:00,
2013-08-17 03:36:00,61.3,52.8,30.16,East,101,0.0,0.0,74,0.00,,CLR,0.00,VWS V14.01,2013-08-17 08:36:00,
2013-08-17 03:41:00,61.3,52.8,30.16,East,101,0.0,0.0,74,0.00,,CLR,0.00,VWS V14.01,2013-08-17 08:41:00,
2013-08-17 03:47:00,61.2,52.6,30.16,East,101,0.0,0.0,74,0.00,,CLR,0.00,VWS V14.01,2013-08-17 08:47:00,
2013-08-17 03:52:00,61.0,52.5,30.16,East,101,0.0,0.0,74,0.00,,CLR,0.00,VWS V14.01,2013-08-17 08:52:00,
2013-08-17 03:57:00,61.0,52.5,30.16,East,101,0.0,0.0,74,0.00,,CLR,0.00,VWS V14.01,2013-08-17 08:57:00,
2013-08-17 04:02:00,61.0,52.5,30.16,East,101,0.0,0.0,74,0.00,,CLR,0.00,VWS V14.01,2013-08-17 09:02:00,
2013-08-17 04:07:00,60.8,52.3,30.16,East,101,0.0,0.0,74,0.00,,CLR,0.00,VWS V14.01,2013-08-17 09:07:00,
2013-08-17 04:12:00,60.8,52.3,30.16,East,101,0.0,0.0,74,0.00,,CLR,0.00,VWS V14.01,2013-08-17 09:12:00,
2013-08-17 04:17:00,60.8,52.3,30.16,East,101,0.0,0.0,74,0.00,,CLR,0.00,VWS V14.01,2013-08-17 09:17:00,
2013-08-17 04:22:00,60.8,52.3,30.16,East,101,0.0,0.0,74,0.00,,CLR,0.00,VWS V14.01,2013-08-17 09:22:00,
2013-08-17 04:27:00,60.6,53.4,30.16,East,101,0.0,0.0,77,0.00,,CLR,0.00,VWS V14.01,2013-08-17 09:27:00,
2013-08-17 04:32:00,60.4,53.2,30.16,East,101,0.0,0.0,77,0.00,,CLR,0.00,VWS V14.01,2013-08-17 09:32:00,
2013-08-17 04:37:00,60.4,53.2,30.16,East,101,0.0,0.0,77,0.00,,CLR,0.00,VWS V14.01,2013-08-17 09:37:00,
2013-08-17 04:42:00,60.3,53.0,30.16,ENE,60,0.0,0.0,77,0.00,,CLR,0.00,VWS V14.01,2013-08-17 09:42:00,
2013-08-17 04:47:00,60.1,52.9,30.16,NE,55,0.0,0.0,77,0.00,,CLR,0.00,VWS V14.01,2013-08-17 09:47:00,
2013-08-17 04:52:00,60.3,53.0,30.16,NE,55,0.0,0.0,77,0.00,,CLR,0.00,VWS V14.01,2013-08-17 09:52:00,
2013-08-17 04:57:00,60.3,53.0,30.16,NE,55,0.0,0.0,77,0.00,,CLR,0.00,VWS V14.01,2013-08-17 09:57:00,
2013-08-17 05:02:00,60.3,53.0,30.16,NE,55,0.0,0.0,77,0.00,,CLR,0.00,VWS V14.01,2013-08-17 10:02:00,
2013-08-17 05:07:00,60.1,52.9,30.16,NE,55,0.0,0.0,77,0.00,,CLR,0.00,VWS V14.01,2013-08-17 10:07:00,
2013-08-17 05:12:00,60.1,52.9,30.16,NE,55,0.0,0.0,77,0.00,,CLR,0.00,VWS V14.01,2013-08-17 10:12:00,
2013-08-17 05:17:00,60.3,53.0,30.16,NE,55,0.0,0.0,77,0.00,,CLR,0.00,VWS V14.01,2013-08-17 10:17:00,
2013-08-17 05:22:00,60.4,53.2,30.16,NE,55,0.0,0.0,77,0.00,,CLR,0.00,VWS V14.01,2013-08-17 10:22:00,
2013-08-17 05:27:00,60.4,53.2,30.16,NE,55,0.0,0.0,77,0.00,,CLR,0.00,VWS V14.01,2013-08-17 10:27:00,
2013-08-17 05:32:00,60.6,55.8,30.16,NE,55,0.0,0.0,84,0.00,,CLR,0.00,VWS V14.01,2013-08-17 10:32:00,
2013-08-17 05:37:00,60.8,55.9,30.16,ENE,73,0.0,0.0,84,0.00,,CLR,0.00,VWS V14.01,2013-08-17 10:37:00,
2013-08-17 05:42:00,61.2,56.3,30.16,ENE,63,0.0,0.0,84,0.00,,CLR,0.00,VWS V14.01,2013-08-17 10:42:00,
2013-08-17 05:48:00,61.5,56.7,30.16,ENE,62,0.0,0.0,84,0.00,,CLR,0.00,VWS V14.01,2013-08-17 10:48:00,
2013-08-17 05:53:00,61.7,56.8,30.16,ENE,62,0.0,0.0,84,0.00,,CLR,0.00,VWS V14.01,2013-08-17 10:53:00,
2013-08-17 05:58:00,61.7,56.8,30.16,ENE,62,0.0,0.0,84,0.00,,CLR,0.00,VWS V14.01,2013-08-17 10:58:00,
2013-08-17 06:03:00,61.7,56.8,30.19,NE,39,0.0,0.0,84,0.00,,CLR,0.00,VWS V14.01,2013-08-17 11:03:00,
2013-08-17 06:08:00,61.7,56.8,30.19,NE,55,0.0,0.0,84,0.00,,CLR,0.00,VWS V14.01,2013-08-17 11:08:00,
2013-08-17 06:13:00,61.5,56.7,30.19,NNE,29,0.0,0.0,84,0.00,,CLR,0.00,VWS V14.01,2013-08-17 11:13:00,
2013-08-17 06:18:00,61.5,56.7,30.19,NNE,29,0.0,0.0,84,0.00,,CLR,0.00,VWS V14.01,2013-08-17 11:18:00,
2013-08-17 06:23:00,61.5,57.8,30.19,NNE,31,0.0,0.0,88,0.00,,CLR,0.00,VWS V14.01,2013-08-17 11:23:00,
2013-08-17 06:28:00,61.5,57.8,30.19,NE,56,0.0,0.0,88,0.00,,CLR,0.00,VWS V14.01,2013-08-17 11:28:00,
2013-08-17 06:33:00,61.5,57.8,30.19,NE,56,0.0,0.0,88,0.00,,CLR,0.00,VWS V14.01,2013-08-17 11:33:00,
2013-08-17 06:38:00,61.5,57.8,30.19,NE,56,0.0,0.0,88,0.00,,CLR,0.00,VWS V14.01,2013-08-17 11:38:00,
2013-08-17 06:43:00,61.7,58.0,30.19,NE,47,0.0,0.0,88,0.00,,CLR,0.00,VWS V14.01,2013-08-17 11:43:00,
2013-08-17 06:48:00,61.7,58.0,30.19,NE,41,0.0,0.0,88,0.00,,CLR,0.00,VWS V14.01,2013-08-17 11:48:00,
2013-08-17 06:53:00,61.7,58.0,30.19,NNE,25,0.0,0.0,88,0.00,,CLR,0.00,VWS V14.01,2013-08-17 11:53:00,
2013-08-17 06:58:00,61.9,58.1,30.19,NE,43,0.0,0.0,88,0.00,,CLR,0.00,VWS V14.01,2013-08-17 11:58:00,
2013-08-17 07:03:00,61.9,59.2,30.19,NE,46,0.0,0.0,91,0.00,,CLR,0.00,VWS V14.01,2013-08-17 12:03:00,
2013-08-17 07:06:00,61.9,59.2,30.19,NE,44,0.0,0.0,91,0.00,,CLR,0.00,VWS V14.01,2013-08-17 12:06:00,
2013-08-17 07:11:00,62.1,59.4,30.19,North,9,0.0,0.0,91,0.00,,CLR,0.00,VWS V14.01,2013-08-17 12:11:00,
2013-08-17 07:16:00,62.1,59.4,30.19,NE,47,0.0,0.0,91,0.00,,CLR,0.00,VWS V14.01,2013-08-17 12:16:00,
2013-08-17 07:21:00,62.2,59.6,30.19,NE,52,0.0,0.0,91,0.00,,CLR,0.00,VWS V14.01,2013-08-17 12:21:00,
2013-08-17 07:26:00,62.2,60.7,30.19,ENE,57,0.0,0.0,94,0.00,,CLR,0.00,VWS V14.01,2013-08-17 12:26:00,
2013-08-17 07:31:00,62.4,60.8,30.19,NNE,21,0.0,0.0,94,0.00,,CLR,0.00,VWS V14.01,2013-08-17 12:31:00,
2013-08-17 07:36:00,62.4,60.8,30.19,ENE,68,0.0,0.0,94,0.00,,CLR,0.00,VWS V14.01,2013-08-17 12:36:00,
2013-08-17 07:41:00,62.4,60.8,30.19,NE,43,0.0,0.0,94,0.00,,CLR,0.00,VWS V14.01,2013-08-17 12:41:00,
2013-08-17 07:46:00,62.6,61.0,30.19,NW,315,0.0,0.0,94,0.00,,CLR,0.00,VWS V14.01,2013-08-17 12:46:00,
2013-08-17 07:51:00,62.6,62.0,30.19,NNE,25,2.7,3.6,98,0.00,,CLR,0.00,VWS V14.01,2013-08-17 12:51:00,
2013-08-17 07:56:00,62.6,62.0,30.19,NE,56,0.0,3.1,98,0.00,,CLR,0.00,VWS V14.01,2013-08-17 12:56:00,
2013-08-17 08:01:00,62.6,62.6,30.19,NE,54,0.0,5.4,100,0.00,,CLR,0.00,VWS V14.01,2013-08-17 13:01:00,
2013-08-17 08:06:00,63.0,63.0,30.19,North,353,4.0,5.4,100,0.00,,CLR,0.00,VWS V14.01,2013-08-17 13:06:00,
2013-08-17 08:11:00,63.1,63.1,30.19,NNW,329,2.7,3.1,100,0.00,,CLR,0.00,VWS V14.01,2013-08-17 13:11:00,
2013-08-17 08:16:00,63.7,63.7,30.22,East,88,3.1,3.6,100,0.00,,CLR,0.00,VWS V14.01,2013-08-17 13:16:00,
2013-08-17 08:21:00,64.0,64.0,30.22,NE,36,3.1,4.0,100,0.00,,CLR,0.00,VWS V14.01,2013-08-17 13:21:00,
2013-08-17 08:26:00,64.8,64.8,30.22,ENE,66,4.9,4.9,100,0.00,,CLR,0.00,VWS V14.01,2013-08-17 13:26:00,
2013-08-17 08:31:00,65.5,65.5,30.22,NE,47,0.0,3.1,100,0.00,,CLR,0.00,VWS V14.01,2013-08-17 13:31:00,
2013-08-17 08:36:00,66.2,66.2,30.22,ENE,65,0.0,3.6,100,0.00,,CLR,0.00,VWS V14.01,2013-08-17 13:36:00,
2013-08-17 08:42:00,67.1,66.5,30.22,NW,306,2.7,4.9,98,0.00,,CLR,0.00,VWS V14.01,2013-08-17 13:42:00,
2013-08-17 08:47:00,67.8,65.1,30.22,East,85,2.2,4.0,91,0.00,,CLR,0.00,VWS V14.01,2013-08-17 13:47:00,
2013-08-17 08:52:00,68.4,62.1,30.22,ENE,65,0.0,3.1,80,0.00,,CLR,0.00,VWS V14.01,2013-08-17 13:52:00,
2013-08-17 08:57:00,69.1,61.6,30.22,NNE,24,0.0,4.0,77,0.00,,CLR,0.00,VWS V14.01,2013-08-17 13:57:00,
2013-08-17 09:02:00,69.4,61.9,30.22,ESE,112,3.6,4.0,77,0.00,,CLR,0.00,VWS V14.01,2013-08-17 14:02:00,
2013-08-17 09:07:00,70.2,58.5,30.22,ESE,110,0.0,3.1,66,0.00,,CLR,0.00,VWS V14.01,2013-08-17 14:07:00,
2013-08-17 09:12:00,70.5,58.8,30.22,ESE,114,3.1,3.6,66,0.00,,CLR,0.00,VWS V14.01,2013-08-17 14:12:00,
2013-08-17 09:17:00,71.1,59.3,30.22,NNE,28,0.0,4.0,66,0.00,,CLR,0.00,VWS V14.01,2013-08-17 14:17:00,
2013-08-17 09:22:00,71.6,59.9,30.22,SE,135,0.0,3.6,66,0.00,,CLR,0.00,VWS V14.01,2013-08-17 14:22:00,
2013-08-17 09:27:00,72.0,60.2,30.22,ENE,70,2.7,5.8,66,0.00,,CLR,0.00,VWS V14.01,2013-08-17 14:27:00,
2013-08-17 09:32:00,72.1,60.4,30.19,NNE,28,4.0,4.9,66,0.00,,CLR,0.00,VWS V14.01,2013-08-17 14:32:00,
2013-08-17 09:37:00,72.3,60.5,30.19,North,6,0.0,3.6,66,0.00,,CLR,0.00,VWS V14.01,2013-08-17 14:37:00,
2013-08-17 09:42:00,72.7,60.9,30.19,ENE,68,2.7,3.6,66,0.00,,CLR,0.00,VWS V14.01,2013-08-17 14:42:00,
2013-08-17 09:47:00,72.9,61.1,30.22,ENE,58,4.0,4.0,66,0.00,,CLR,0.00,VWS V14.01,2013-08-17 14:47:00,
2013-08-17 09:52:00,73.0,61.2,30.22,North,9,0.0,0.0,66,0.00,,CLR,0.00,VWS V14.01,2013-08-17 14:52:00,
2013-08-17 09:57:00,73.4,60.0,30.22,ESE,105,0.0,4.9,63,0.00,,CLR,0.00,VWS V14.01,2013-08-17 14:57:00,
2013-08-17 10:02:00,74.1,60.7,30.22,East,87,3.1,5.4,63,0.00,,CLR,0.00,VWS V14.01,2013-08-17 15:02:00,
2013-08-17 10:07:00,74.8,61.4,30.22,East,89,3.1,3.6,63,0.00,,CLR,0.00,VWS V14.01,2013-08-17 15:07:00,
2013-08-17 10:12:00,75.2,61.8,30.22,NE,52,2.7,5.8,63,0.00,,CLR,0.00,VWS V14.01,2013-08-17 15:12:00,
2013-08-17 10:18:00,75.4,61.9,30.22,NE,54,0.0,4.9,63,0.00,,CLR,0.00,VWS V14.01,2013-08-17 15:18:00,
2013-08-17 10:23:00,75.6,62.1,30.22,NE,54,3.1,5.8,63,0.00,,CLR,0.00,VWS V14.01,2013-08-17 15:23:00,
2013-08-17 10:28:00,75.7,62.3,30.22,SE,137,0.0,5.4,63,0.00,,CLR,0.00,VWS V14.01,2013-08-17 15:28:00,
2013-08-17 10:33:00,76.3,62.8,30.22,NE,47,4.9,6.3,63,0.00,,CLR,0.00,VWS V14.01,2013-08-17 15:33:00,
2013-08-17 10:38:00,76.3,62.8,30.22,East,86,3.1,5.4,63,0.00,,CLR,0.00,VWS V14.01,2013-08-17 15:38:00,
2013-08-17 10:43:00,76.8,63.3,30.22,East,81,2.2,5.4,63,0.00,,CLR,0.00,VWS V14.01,2013-08-17 15:43:00,
2013-08-17 10:48:00,76.8,63.3,30.22,ESE,122,2.2,3.6,63,0.00,,CLR,0.00,VWS V14.01,2013-08-17 15:48:00,
2013-08-17 10:53:00,77.0,63.5,30.22,NNE,29,2.7,6.3,63,0.00,,CLR,0.00,VWS V14.01,2013-08-17 15:53:00,
2013-08-17 10:58:00,77.0,63.5,30.22,SSE,151,3.1,5.8,63,0.00,,CLR,0.00,VWS V14.01,2013-08-17 15:58:00,
2013-08-17 11:03:00,77.2,63.6,30.22,North,7,3.1,5.8,63,0.00,,CLR,0.00,VWS V14.01,2013-08-17 16:03:00,
2013-08-17 11:08:00,77.4,63.8,30.22,East,86,5.8,5.8,63,0.00,,CLR,0.00,VWS V14.01,2013-08-17 16:08:00,
2013-08-17 11:13:00,77.7,64.1,30.22,South,173,0.0,5.4,63,0.00,,CLR,0.00,VWS V14.01,2013-08-17 16:13:00,
2013-08-17 11:18:00,78.1,64.5,30.22,ESE,123,3.1,6.3,63,0.00,,CLR,0.00,VWS V14.01,2013-08-17 16:18:00,
2013-08-17 11:23:00,78.4,64.8,30.22,NNE,30,5.4,6.3,63,0.00,,CLR,0.00,VWS V14.01,2013-08-17 16:23:00,
2013-08-17 11:28:00,78.8,63.5,30.22,ESE,123,4.0,5.8,60,0.00,,CLR,0.00,VWS V14.01,2013-08-17 16:28:00,
2013-08-17 11:33:00,78.8,63.5,30.22,ESE,114,2.7,6.3,60,0.00,,CLR,0.00,VWS V14.01,2013-08-17 16:33:00,
2013-08-17 11:38:00,79.0,63.7,30.22,SSW,197,3.1,7.2,60,0.00,,CLR,0.00,VWS V14.01,2013-08-17 16:38:00,
2013-08-17 11:43:00,79.3,64.0,30.22,NNE,14,3.1,6.3,60,0.00,,CLR,0.00,VWS V14.01,2013-08-17 16:43:00,
2013-08-17 11:48:00,79.7,64.4,30.22,NE,39,2.7,8.7,60,0.00,,CLR,0.00,VWS V14.01,2013-08-17 16:48:00,
2013-08-17 11:53:00,80.1,64.7,30.22,NE,35,4.9,8.7,60,0.00,,CLR,0.00,VWS V14.01,2013-08-17 16:53:00,
2013-08-17 11:59:00,80.1,64.7,30.22,NE,38,2.7,7.6,60,0.00,,CLR,0.00,VWS V14.01,2013-08-17 16:59:00,
2013-08-17 12:04:00,79.5,64.2,30.22,NNE,23,0.0,5.4,60,0.00,,CLR,0.00,VWS V14.01,2013-08-17 17:04:00,
2013-08-17 12:09:00,79.5,64.2,30.22,SE,129,2.7,10.5,60,0.00,,CLR,0.00,VWS V14.01,2013-08-17 17:09:00,
2013-08-17 12:14:00,79.3,64.0,30.22,ESE,118,2.7,7.6,60,0.00,,CLR,0.00,VWS V14.01,2013-08-17 17:14:00,
2013-08-17 12:19:00,79.0,63.7,30.19,NE,56,4.0,8.1,60,0.00,,CLR,0.00,VWS V14.01,2013-08-17 17:19:00,
2013-08-17 12:24:00,79.3,64.0,30.19,South,187,2.2,8.1,60,0.00,,SCT044,0.00,VWS V14.01,2013-08-17 17:24:00,
2013-08-17 12:29:00,80.2,64.9,30.19,WSW,254,2.2,4.9,60,0.00,,SCT044,0.00,VWS V14.01,2013-08-17 17:29:00,
2013-08-17 12:34:00,80.2,64.9,30.19,SSE,166,0.0,8.7,60,0.00,,SCT044,0.00,VWS V14.01,2013-08-17 17:34:00,
2013-08-17 12:39:00,79.9,64.5,30.19,ENE,72,4.0,6.7,60,0.00,,SCT044,0.00,VWS V14.01,2013-08-17 17:39:00,
2013-08-17 12:44:00,80.4,65.0,30.19,North,0,5.8,6.3,60,0.00,,CLR,0.00,VWS V14.01,2013-08-17 17:44:00,
2013-08-17 12:49:00,80.4,65.0,30.19,SE,146,3.1,5.4,60,0.00,,CLR,0.00,VWS V14.01,2013-08-17 17:49:00,
2013-08-17 12:54:00,81.3,65.9,30.19,East,86,5.4,5.8,60,0.00,,CLR,0.00,VWS V14.01,2013-08-17 17:54:00,
2013-08-17 12:59:00,81.0,65.5,30.19,SW,214,3.1,7.6,60,0.00,,CLR,0.00,VWS V14.01,2013-08-17 17:59:00,
2013-08-17 13:04:00,81.1,65.7,30.19,ENE,57,8.1,8.1,60,0.00,,SCT045,0.00,VWS V14.01,2013-08-17 18:04:00,
2013-08-17 13:09:00,81.5,66.1,30.19,NE,40,3.1,5.8,60,0.00,,SCT045,0.00,VWS V14.01,2013-08-17 18:09:00,
2013-08-17 13:14:00,81.7,66.2,30.19,East,94,2.7,8.1,60,0.00,,SCT045,0.00,VWS V14.01,2013-08-17 18:14:00,
2013-08-17 13:19:00,81.3,65.9,30.19,North,357,7.6,8.7,60,0.00,,SCT045,0.00,VWS V14.01,2013-08-17 18:19:00,
2013-08-17 13:24:00,80.8,65.4,30.19,SE,128,0.0,5.8,60,0.00,,BKN045,0.00,VWS V14.01,2013-08-17 18:24:00,
2013-08-17 13:29:00,81.1,65.7,30.19,East,98,5.4,7.6,60,0.00,,BKN045,0.00,VWS V14.01,2013-08-17 18:29:00,
2013-08-17 13:34:00,81.7,66.2,30.19,NNE,28,12.8,12.8,60,0.00,,BKN045,0.00,VWS V14.01,2013-08-17 18:34:00,
2013-08-17 13:39:00,80.6,65.2,30.19,East,98,3.6,8.3,60,0.00,,BKN045,0.00,VWS V14.01,2013-08-17 18:39:00,
2013-08-17 13:45:00,79.9,64.5,30.19,North,353,0.0,7.2,60,0.00,,BKN045,0.00,VWS V14.01,2013-08-17 18:45:00,
2013-08-17 13:50:00,80.4,65.0,30.19,SW,214,2.7,7.6,60,0.00,,BKN045,0.00,VWS V14.01,2013-08-17 18:50:00,
2013-08-17 13:55:00,80.8,65.4,30.19,ENE,65,3.6,8.1,60,0.00,,BKN045,0.00,VWS V14.01,2013-08-17 18:55:00,
2013-08-17 14:00:00,80.6,65.2,30.19,NE,46,5.4,7.6,60,0.00,,BKN045,0.00,VWS V14.01,2013-08-17 19:00:00,
2013-08-17 14:05:00,80.4,65.0,30.19,NNW,341,3.6,6.3,60,0.00,,SCT047,0.00,VWS V14.01,2013-08-17 19:05:00,
2013-08-17 14:10:00,81.0,65.5,30.19,NNE,17,3.1,5.8,60,0.00,,SCT047,0.00,VWS V14.01,2013-08-17 19:10:00,
2013-08-17 14:15:00,81.5,66.1,30.19,North,3,4.5,12.3,60,0.00,,SCT047,0.00,VWS V14.01,2013-08-17 19:15:00,
2013-08-17 14:20:00,82.0,66.6,30.19,NE,48,5.8,8.1,60,0.00,,SCT049,0.00,VWS V14.01,2013-08-17 19:20:00,
2013-08-17 14:25:00,81.3,65.9,30.19,ENE,75,2.2,6.7,60,0.00,,SCT049,0.00,VWS V14.01,2013-08-17 19:25:00,
2013-08-17 14:30:00,80.8,65.4,30.19,SSE,152,3.6,3.6,60,0.00,,SCT049,0.00,VWS V14.01,2013-08-17 19:30:00,
2013-08-17 14:35:00,80.4,65.0,30.16,SSW,199,2.7,3.1,60,0.00,,SCT049,0.00,VWS V14.01,2013-08-17 19:35:00,
2013-08-17 14:40:00,80.4,65.0,30.16,ENE,72,5.4,5.8,60,0.00,,BKN049,0.00,VWS V14.01,2013-08-17 19:40:00,
2013-08-17 14:45:00,80.8,65.4,30.16,ESE,106,0.0,0.0,60,0.00,,BKN049,0.00,VWS V14.01,2013-08-17 19:45:00,
2013-08-17 14:50:00,81.5,66.1,30.16,SE,142,3.1,5.8,60,0.00,,BKN049,0.00,VWS V14.01,2013-08-17 19:50:00,
2013-08-17 14:55:00,82.6,65.3,30.16,SE,141,2.7,2.7,56,0.00,,BKN049,0.00,VWS V14.01,2013-08-17 19:55:00,
2013-08-17 15:00:00,83.1,65.8,30.16,SSW,199,2.7,5.8,56,0.00,,SCT049,0.00,VWS V14.01,2013-08-17 20:00:00,
2013-08-17 15:05:00,83.3,66.0,30.16,SSW,203,5.4,5.4,56,0.00,,SCT049,0.00,VWS V14.01,2013-08-17 20:05:00,
2013-08-17 15:10:00,82.8,65.5,30.16,East,84,2.7,2.7,56,0.00,,SCT049,0.00,VWS V14.01,2013-08-17 20:10:00,
2013-08-17 15:15:00,81.9,66.4,30.16,South,181,0.0,0.0,60,0.00,,SCT049,0.00,VWS V14.01,2013-08-17 20:15:00,
2013-08-17 15:20:00,81.1,65.7,30.16,SW,227,2.7,3.6,60,0.00,,SCT049,0.00,VWS V14.01,2013-08-17 20:20:00,
2013-08-17 15:25:00,81.3,65.9,30.16,NNE,18,3.6,4.0,60,0.00,,SCT049,0.00,VWS V14.01,2013-08-17 20:25:00,
2013-08-17 15:31:00,82.0,66.6,30.16,North,353,4.0,5.4,60,0.00,,SCT049,0.00,VWS V14.01,2013-08-17 20:31:00,
2013-08-17 15:36:00,82.6,65.3,30.16,NE,54,3.6,5.4,56,0.00,,SCT049,0.00,VWS V14.01,2013-08-17 20:36:00,
2013-08-17 15:41:00,81.5,66.1,30.16,East,90,0.0,0.0,60,0.00,,SCT049,0.00,VWS V14.01,2013-08-17 20:41:00,
2013-08-17 15:46:00,80.1,64.7,30.16,SE,127,0.0,0.0,60,0.00,,SCT049,0.00,VWS V14.01,2013-08-17 20:46:00,
2013-08-17 15:51:00,79.3,64.0,30.16,SSW,197,0.0,0.0,60,0.00,,SCT049,0.00,VWS V14.01,2013-08-17 20:51:00,
2013-08-17 15:56:00,80.2,64.9,30.16,ESE,123,3.6,5.4,60,0.00,,SCT049,0.00,VWS V14.01,2013-08-17 20:56:00,
2013-08-17 16:01:00,80.8,65.4,30.16,North,357,0.0,0.0,60,0.00,,CLR,0.00,VWS V14.01,2013-08-17 21:01:00,
2013-08-17 16:06:00,81.7,66.2,30.16,NNE,24,6.3,6.3,60,0.00,,CLR,0.00,VWS V14.01,2013-08-17 21:06:00,
2013-08-17 16:11:00,82.4,65.1,30.16,East,86,4.0,5.4,56,0.00,,CLR,0.00,VWS V14.01,2013-08-17 21:11:00,
2013-08-17 16:16:00,82.4,65.1,30.16,ESE,104,5.4,5.4,56,0.00,,CLR,0.00,VWS V14.01,2013-08-17 21:16:00,
2013-08-17 16:21:00,82.2,66.7,30.16,SSE,149,3.1,3.6,60,0.00,,CLR,0.00,VWS V14.01,2013-08-17 21:21:00,
2013-08-17 16:26:00,82.2,66.7,30.16,SE,126,5.8,5.8,60,0.00,,CLR,0.00,VWS V14.01,2013-08-17 21:26:00,
2013-08-17 16:31:00,82.2,66.7,30.16,North,2,2.7,4.0,60,0.00,,CLR,0.00,VWS V14.01,2013-08-17 21:31:00,
2013-08-17 16:36:00,82.6,65.3,30.16,SSE,163,0.0,3.1,56,0.00,,CLR,0.00,VWS V14.01,2013-08-17 21:36:00,
2013-08-17 16:41:00,82.9,65.7,30.16,SE,134,0.0,0.0,56,0.00,,CLR,0.00,VWS V14.01,2013-08-17 21:41:00,
2013-08-17 16:46:00,82.6,65.3,30.16,South,179,0.0,5.8,56,0.00,,CLR,0.00,VWS V14.01,2013-08-17 21:46:00,
2013-08-17 16:51:00,82.8,65.5,30.16,NE,52,5.8,7.6,56,0.00,,CLR,0.00,VWS V14.01,2013-08-17 21:51:00,
2013-08-17 16:56:00,83.3,66.0,30.16,ENE,58,5.8,5.8,56,0.00,,CLR,0.00,VWS V14.01,2013-08-17 21:56:00,
2013-08-17 17:01:00,83.1,65.8,30.16,ENE,75,4.9,5.8,56,0.00,,SCT048,0.00,VWS V14.01,2013-08-17 22:01:00,
2013-08-17 17:06:00,82.8,65.5,30.16,SSE,150,2.7,5.8,56,0.00,,SCT048,0.00,VWS V14.01,2013-08-17 22:06:00,
2013-08-17 17:11:00,81.5,66.1,30.16,SE,146,0.0,3.1,60,0.00,,SCT048,0.00,VWS V14.01,2013-08-17 22:11:00,
2013-08-17 17:17:00,80.2,64.9,30.16,NNE,31,3.1,4.0,60,0.00,,SCT048,0.00,VWS V14.01,2013-08-17 22:17:00,
2013-08-17 17:22:00,80.6,65.2,30.16,SE,131,4.0,4.0,60,0.00,,CLR,0.00,VWS V14.01,2013-08-17 22:22:00,
2013-08-17 17:27:00,81.1,65.7,30.16,NE,49,0.0,4.9,60,0.00,,CLR,0.00,VWS V14.01,2013-08-17 22:27:00,
2013-08-17 17:32:00,81.1,65.7,30.16,East,84,2.7,4.9,60,0.00,,CLR,0.00,VWS V14.01,2013-08-17 22:32:00,
2013-08-17 17:37:00,81.5,66.1,30.16,ENE,70,4.0,6.3,60,0.00,,CLR,0.00,VWS V14.01,2013-08-17 22:37:00,
2013-08-17 17:42:00,81.3,65.9,30.16,ENE,73,4.0,4.9,60,0.00,,CLR,0.00,VWS V14.01,2013-08-17 22:42:00,
2013-08-17 17:47:00,81.1,65.7,30.16,SE,135,3.6,4.0,60,0.00,,CLR,0.00,VWS V14.01,2013-08-17 22:47:00,
2013-08-17 17:52:00,81.5,66.1,30.16,NE,52,0.0,3.1,60,0.00,,CLR,0.00,VWS V14.01,2013-08-17 22:52:00,
2013-08-17 17:57:00,81.5,66.1,30.16,SE,135,0.0,4.0,60,0.00,,CLR,0.00,VWS V14.01,2013-08-17 22:57:00,
2013-08-17 18:02:00,81.3,65.9,30.16,NNE,20,0.0,3.6,60,0.00,,CLR,0.00,VWS V14.01,2013-08-17 23:02:00,
2013-08-17 18:07:00,81.5,66.1,30.16,East,82,3.6,4.0,60,0.00,,CLR,0.00,VWS V14.01,2013-08-17 23:07:00,
2013-08-17 18:12:00,81.3,65.9,30.16,SE,125,0.0,0.0,60,0.00,,CLR,0.00,VWS V14.01,2013-08-17 23:12:00,
2013-08-17 18:17:00,81.1,65.7,30.16,SE,128,4.9,6.3,60,0.00,,CLR,0.00,VWS V14.01,2013-08-17 23:17:00,
2013-08-17 18:22:00,80.8,65.4,30.16,ESE,116,3.6,4.9,60,0.00,,CLR,0.00,VWS V14.01,2013-08-17 23:22:00,
2013-08-17 18:27:00,80.4,65.0,30.16,East,99,3.1,3.6,60,0.00,,CLR,0.00,VWS V14.01,2013-08-17 23:27:00,
2013-08-17 18:32:00,79.7,64.4,30.16,SE,139,3.1,4.0,60,0.00,,CLR,0.00,VWS V14.01,2013-08-17 23:32:00,
2013-08-17 18:37:00,79.7,64.4,30.16,SSE,147,0.0,0.0,60,0.00,,CLR,0.00,VWS V14.01,2013-08-17 23:37:00,
2013-08-17 18:42:00,79.5,64.2,30.16,SE,125,0.0,0.0,60,0.00,,CLR,0.00,VWS V14.01,2013-08-17 23:42:00,
2013-08-17 18:47:00,79.2,63.8,30.16,NNE,28,2.7,4.9,60,0.00,,CLR,0.00,VWS V14.01,2013-08-17 23:47:00,
2013-08-17 18:52:00,78.3,64.6,30.16,NE,54,0.0,5.8,63,0.00,,CLR,0.00,VWS V14.01,2013-08-17 23:52:00,
2013-08-17 18:57:00,77.4,63.8,30.16,SSE,153,0.0,0.0,63,0.00,,CLR,0.00,VWS V14.01,2013-08-17 23:57:00,
2013-08-17 19:02:00,76.5,62.9,30.16,SSE,165,0.0,0.0,63,0.00,,CLR,0.00,VWS V14.01,2013-08-18 00:02:00,
2013-08-17 19:08:00,76.1,62.6,30.16,ESE,107,0.0,0.0,63,0.00,,CLR,0.00,VWS V14.01,2013-08-18 00:08:00,
2013-08-17 19:13:00,75.6,62.1,30.16,ENE,78,0.0,2.2,63,0.00,,CLR,0.00,VWS V14.01,2013-08-18 00:13:00,
2013-08-17 19:18:00,75.2,61.8,30.16,ENE,73,0.0,4.0,63,0.00,,CLR,0.00,VWS V14.01,2013-08-18 00:18:00,
2013-08-17 19:23:00,74.8,61.4,30.16,SE,139,0.0,0.0,63,0.00,,CLR,0.00,VWS V14.01,2013-08-18 00:23:00,
2013-08-17 19:28:00,74.5,61.1,30.16,SE,135,0.0,0.0,63,0.00,,CLR,0.00,VWS V14.01,2013-08-18 00:28:00,
2013-08-17 19:33:00,74.3,60.9,30.16,ESE,105,0.0,0.0,63,0.00,,CLR,0.00,VWS V14.01,2013-08-18 00:33:00,
2013-08-17 19:38:00,73.9,60.6,30.16,SSE,149,0.0,0.0,63,0.00,,CLR,0.00,VWS V14.01,2013-08-18 00:38:00,
2013-08-17 19:43:00,73.6,60.2,30.16,East,90,0.0,0.0,63,0.00,,CLR,0.00,VWS V14.01,2013-08-18 00:43:00,
2013-08-17 19:48:00,73.2,61.4,30.16,East,85,0.0,0.0,66,0.00,,CLR,0.00,VWS V14.01,2013-08-18 00:48:00,
2013-08-17 19:53:00,73.0,56.4,30.16,East,85,0.0,0.0,56,0.00,,CLR,0.00,VWS V14.01,2013-08-18 00:53:00,
2013-08-17 19:58:00,72.7,56.1,30.16,East,95,0.0,0.0,56,0.00,,CLR,0.00,VWS V14.01,2013-08-18 00:58:00,
2013-08-17 20:03:00,72.3,55.8,30.16,East,95,0.0,0.0,56,0.00,,CLR,0.00,VWS V14.01,2013-08-18 01:03:00,
2013-08-17 20:08:00,72.0,55.4,30.16,East,95,0.0,0.0,56,0.00,,CLR,0.00,VWS V14.01,2013-08-18 01:08:00,
2013-08-17 20:13:00,71.6,55.1,30.16,East,95,0.0,0.0,56,0.00,,CLR,0.00,VWS V14.01,2013-08-18 01:13:00,
2013-08-17 20:18:00,71.2,56.4,30.16,East,95,0.0,0.0,60,0.00,,CLR,0.00,VWS V14.01,2013-08-18 01:18:00,
2013-08-17 20:23:00,70.9,56.1,30.16,ENE,77,0.0,0.0,60,0.00,,CLR,0.00,VWS V14.01,2013-08-18 01:23:00,
2013-08-17 20:28:00,70.7,55.9,30.16,ESE,111,0.0,0.0,60,0.00,,CLR,0.00,VWS V14.01,2013-08-18 01:28:00,
2013-08-17 20:33:00,70.5,55.8,30.16,East,98,0.0,0.0,60,0.00,,CLR,0.00,VWS V14.01,2013-08-18 01:33:00,
2013-08-17 20:38:00,70.3,55.6,30.16,East,92,0.0,0.0,60,0.00,,CLR,0.00,VWS V14.01,2013-08-18 01:38:00,
2013-08-17 20:43:00,70.0,55.2,30.16,East,83,0.0,0.0,60,0.00,,CLR,0.00,VWS V14.01,2013-08-18 01:43:00,
2013-08-17 20:48:00,69.8,55.1,30.16,East,83,0.0,0.0,60,0.00,,CLR,0.00,VWS V14.01,2013-08-18 01:48:00,
2013-08-17 20:54:00,69.6,54.9,30.16,ENE,76,0.0,0.0,60,0.00,,CLR,0.00,VWS V14.01,2013-08-18 01:54:00,
2013-08-17 20:59:00,69.4,54.7,30.16,ENE,76,0.0,0.0,60,0.00,,CLR,0.00,VWS V14.01,2013-08-18 01:59:00,
2013-08-17 21:04:00,69.3,54.6,30.16,ENE,76,0.0,0.0,60,0.00,,CLR,0.00,VWS V14.01,2013-08-18 02:04:00,
2013-08-17 21:09:00,69.1,54.4,30.16,ENE,76,0.0,0.0,60,0.00,,CLR,0.00,VWS V14.01,2013-08-18 02:09:00,
2013-08-17 21:14:00,68.9,54.2,30.16,ENE,76,0.0,0.0,60,0.00,,CLR,0.00,VWS V14.01,2013-08-18 02:14:00,
2013-08-17 21:19:00,68.7,54.1,30.16,ENE,76,0.0,0.0,60,0.00,,CLR,0.00,VWS V14.01,2013-08-18 02:19:00,
2013-08-17 21:24:00,68.5,53.9,30.16,ENE,76,0.0,0.0,60,0.00,,CLR,0.00,VWS V14.01,2013-08-18 02:24:00,
2013-08-17 21:29:00,68.4,53.7,30.16,ENE,76,0.0,0.0,60,0.00,,CLR,0.00,VWS V14.01,2013-08-18 02:29:00,
2013-08-17 21:34:00,68.2,53.5,30.16,ENE,76,0.0,0.0,60,0.00,,CLR,0.00,VWS V14.01,2013-08-18 02:34:00,
2013-08-17 21:39:00,68.2,53.5,30.16,ENE,76,0.0,0.0,60,0.00,,CLR,0.00,VWS V14.01,2013-08-18 02:39:00,
2013-08-17 21:44:00,68.2,53.5,30.16,East,84,0.0,0.0,60,0.00,,CLR,0.00,VWS V14.01,2013-08-18 02:44:00,
2013-08-17 21:49:00,68.2,53.5,30.16,East,84,0.0,0.0,60,0.00,,CLR,0.00,VWS V14.01,2013-08-18 02:49:00,
2013-08-17 21:54:00,68.2,53.5,30.16,East,84,0.0,0.0,60,0.00,,CLR,0.00,VWS V14.01,2013-08-18 02:54:00,
2013-08-17 21:59:00,68.0,53.4,30.16,East,84,0.0,0.0,60,0.00,,CLR,0.00,VWS V14.01,2013-08-18 02:59:00,
2013-08-17 22:04:00,68.0,53.4,30.16,East,86,0.0,0.0,60,0.00,,CLR,0.00,VWS V14.01,2013-08-18 03:04:00,
2013-08-17 22:09:00,67.8,53.2,30.16,East,86,0.0,0.0,60,0.00,,CLR,0.00,VWS V14.01,2013-08-18 03:09:00,
2013-08-17 22:14:00,67.8,53.2,30.16,ENE,76,0.0,0.0,60,0.00,,CLR,0.00,VWS V14.01,2013-08-18 03:14:00,
2013-08-17 22:19:00,67.8,53.2,30.16,ENE,76,0.0,0.0,60,0.00,,CLR,0.00,VWS V14.01,2013-08-18 03:19:00,
2013-08-17 22:24:00,67.8,53.2,30.16,ENE,66,0.0,0.0,60,0.00,,CLR,0.00,VWS V14.01,2013-08-18 03:24:00,
2013-08-17 22:29:00,67.8,53.2,30.16,ENE,66,0.0,0.0,60,0.00,,CLR,0.00,VWS V14.01,2013-08-18 03:29:00,
2013-08-17 22:34:00,67.6,53.0,30.16,ENE,71,0.0,0.0,60,0.00,,CLR,0.00,VWS V14.01,2013-08-18 03:34:00,
2013-08-17 22:40:00,67.5,52.9,30.16,East,90,0.0,0.0,60,0.00,,CLR,0.00,VWS V14.01,2013-08-18 03:40:00,
2013-08-17 22:45:00,67.5,52.9,30.16,ENE,71,0.0,0.0,60,0.00,,CLR,0.00,VWS V14.01,2013-08-18 03:45:00,
2013-08-17 22:50:00,67.5,52.9,30.16,ENE,63,0.0,0.0,60,0.00,,CLR,0.00,VWS V14.01,2013-08-18 03:50:00,
2013-08-17 22:55:00,67.5,52.9,30.16,NE,56,0.0,0.0,60,0.00,,CLR,0.00,VWS V14.01,2013-08-18 03:55:00,
2013-08-17 23:00:00,67.3,52.7,30.16,ENE,64,0.0,0.0,60,0.00,,CLR,0.00,VWS V14.01,2013-08-18 04:00:00,
2013-08-17 23:01:00,67.3,52.7,30.16,ENE,64,0.0,0.0,60,0.00,,CLR,0.00,VWS V14.01,2013-08-18 04:01:00,
2013-08-17 23:02:00,67.1,52.5,30.16,ESE,114,0.0,0.0,60,0.00,,CLR,0.00,VWS V14.01,2013-08-18 04:02:00,
2013-08-17 23:03:00,67.1,52.5,30.16,SE,146,0.0,0.0,60,0.00,,CLR,0.00,VWS V14.01,2013-08-18 04:03:00,
2013-08-17 23:08:00,67.1,52.5,30.16,East,98,0.0,0.0,60,0.00,,CLR,0.00,VWS V14.01,2013-08-18 04:08:00,
2013-08-17 23:13:00,67.1,52.5,30.16,East,98,0.0,0.0,60,0.00,,CLR,0.00,VWS V14.01,2013-08-18 04:13:00,
2013-08-17 23:18:00,66.9,52.4,30.16,East,98,0.0,0.0,60,0.00,,CLR,0.00,VWS V14.01,2013-08-18 04:18:00,
2013-08-17 23:23:00,66.9,52.4,30.16,East,98,0.0,0.0,60,0.00,,CLR,0.00,VWS V14.01,2013-08-18 04:23:00,
2013-08-17 23:28:00,66.7,52.2,30.16,ESE,111,4.0,4.0,60,0.00,,CLR,0.00,VWS V14.01,2013-08-18 04:28:00,
2013-08-17 23:33:00,66.7,52.2,30.16,ENE,57,0.0,0.0,60,0.00,,CLR,0.00,VWS V14.01,2013-08-18 04:33:00,
2013-08-17 23:38:00,66.7,52.2,30.16,East,94,0.0,0.0,60,0.00,,CLR,0.00,VWS V14.01,2013-08-18 04:38:00,
2013-08-17 23:43:00,66.7,52.2,30.16,East,79,0.0,0.0,60,0.00,,CLR,0.00,VWS V14.01,2013-08-18 04:43:00,
2013-08-17 23:48:00,66.7,52.2,30.16,East,79,0.0,0.0,60,0.00,,CLR,0.00,VWS V14.01,2013-08-18 04:48:00,
2013-08-17 23:53:00,66.7,52.2,30.16,East,91,0.0,0.0,60,0.00,,CLR,0.00,VWS V14.01,2013-08-18 04:53:00,
2013-08-17 23:59:00,66.7,52.2,30.16,East,90,0.0,0.0,60,0.00,,CLR,0.00,VWS V14.01,2013-08-18 04:59:00,